Zacatecas Airport, Mexico

7:09 AM CDT on August 28, 2016 (GMT -0500)
Gen Leobardo C Ruiz International

Weather History for MMZC - December, 2012

Change the Weather History Date:

Tuesday, December 18, 2012

  Actual Average Record
Temperature  
Mean Temperature 48 °F -  
Max Temperature 73 °F 66 °F 75 °F (2007)
Min Temperature 23 °F 32 °F 19 °F (2003)
Degree Days  
Heating Degree Days 17    
Moisture  
Dew Point 17 °F    
Average Humidity 32    
Maximum Humidity 54    
Minimum Humidity 13    
Precipitation  
Precipitation 0.00 in - - ()
Sea Level Pressure  
Sea Level Pressure 30.22 in    
Wind  
Wind Speed 5 mph ()    
Max Wind Speed 17 mph    
Max Gust Speed 29 mph    
Visibility 10.0 miles    
Events      
Averages and records for this station are not official NWS values.
T = Trace of Precipitation, MM = Missing Value Source: Averaged Metar Reports

Daily Weather History Graph

Daily Weather History Graph

Search for Another Location

Airport or City:

Trip Planner

Search our weather history database for the weather conditions in past years. The results will help you decide how hot, cold, wet, or windy it might be!

Date:

Astronomy

Dec. 18, 2012 Rise Set
Actual Time 7:25 AM CST 6:09 PM CST
Civil Twilight 7:01 AM CST 6:34 PM CST
Nautical Twilight 6:33 AM CST 7:02 PM CST
Astronomical Twilight 6:05 AM CST 7:29 PM CST
Moon 11:42 AM CST (12/18) 11:57 PM CST (12/18)
Length of Visible Light 11h 33m
Length of Day
10h 43m
Waxing Crescent, 35% of the Moon is Illuminated
Dec 18
Waxing Crescent
Dec 19
First Quarter
Dec 28
Full
Jan 4
Last Quarter
Jan 11
New

Hourly Weather History & Observations

Time (CST) Temp. Windchill Dew Point Humidity Pressure Visibility Wind Dir Wind Speed Gust Speed Precip Events Conditions
12:42 AM 35.6 °F - 10.4 °F 35% 30.25 in 10.0 mi Calm Calm - N/A   Clear
1:43 AM 32.0 °F - 8.6 °F 38% 30.24 in 10.0 mi Calm Calm - N/A   Clear
3:41 AM 30.2 °F 25.4 °F 10.4 °F 44% 30.23 in 10.0 mi South 4.6 mph - N/A   Partly Cloudy
4:43 AM 26.6 °F 19.1 °F 8.6 °F 47% 30.23 in 10.0 mi South 6.9 mph - N/A   Clear
5:40 AM 28.4 °F 23.3 °F 10.4 °F 47% 30.23 in 10.0 mi South 4.6 mph - N/A   Clear
6:49 AM 23.0 °F - 8.6 °F 54% 30.26 in 10.0 mi Calm Calm - N/A   Clear
8:11 AM 28.4 °F 24.6 °F 12.2 °F 51% 30.28 in 10.0 mi SSW 3.5 mph - N/A   Clear
8:42 AM 37.4 °F - 17.6 °F 45% 30.28 in 10.0 mi Calm Calm - N/A   Clear
9:45 AM 51.8 °F - 19.4 °F 28% 30.29 in 10.0 mi Calm Calm - N/A   Clear
10:42 AM 57.2 °F - 21.2 °F 25% 30.28 in 10.0 mi NW 3.5 mph - N/A   Clear
11:43 AM 64.4 °F - 21.2 °F 19% 30.26 in 10.0 mi South 3.5 mph - N/A   Clear
12:41 PM 69.8 °F - 24.8 °F 18% 30.23 in 10.0 mi South 17.3 mph - N/A   Clear
1:40 PM 71.6 °F - 23.0 °F 16% 30.19 in 10.0 mi WSW 17.3 mph - N/A   Clear
2:50 PM 73.4 °F - 19.4 °F 13% 30.15 in 10.0 mi WSW 17.3 mph - N/A   Clear
4:45 PM 71.6 °F - 21.2 °F 15% 30.14 in 10.0 mi WSW 17.3 mph 28.8 mph N/A   Clear
5:44 PM 66.2 °F - 21.2 °F 18% 30.14 in 10.0 mi WSW 17.3 mph - N/A   Clear
6:46 PM 57.2 °F - 19.4 °F 23% 30.15 in 10.0 mi WSW 11.5 mph - N/A   Clear
7:44 PM 53.6 °F - 21.2 °F 28% 30.17 in 10.0 mi SSW 5.8 mph - N/A   Clear
8:44 PM 53.6 °F - 21.2 °F 28% 30.19 in 10.0 mi South 5.8 mph - N/A   Clear
9:43 PM 50.0 °F - 21.2 °F 32% 30.21 in 10.0 mi South 6.9 mph - N/A   Clear
10:53 PM 41.0 °F 39.0 °F 19.4 °F 42% 30.22 in 10.0 mi SSW 3.5 mph - N/A   Clear
11:45 PM 37.4 °F 34.9 °F 19.4 °F 48% 30.22 in 10.0 mi South 3.5 mph - N/A   Clear